Weather History for KPKB - January, 2012

Change the Weather History Date:

Tuesday, January 3, 2012

  Actual Average Record
Temperature  
Mean Temperature 21 °F 32 °F  
Max Temperature 23 °F 40 °F 71 °F (1907)
Min Temperature 19 °F 24 °F -1 °F (1918)
Degree Days  
Heating Degree Days 44 33  
Month to date heating degree days 99 99  
Cooling Degree Days 0 0  
Month to date cooling degree days 0 0  
Year to date cooling degree days 0 0  
Moisture  
Dew Point 12 °F    
Average Humidity 64    
Maximum Humidity 81    
Minimum Humidity 47    
Precipitation  
Precipitation T in 0.10 in 0.81 in (2005)
Month to date precipitation 0.04 0.29  
Year to date precipitation 0.04 0.29  
Sea Level Pressure  
Sea Level Pressure 30.28 in    
Wind  
Wind Speed 12 mph (WNW)    
Max Wind Speed 20 mph    
Max Gust Speed 35 mph    
Visibility 9 miles    
Events Snow    
T = Trace of Precipitation, MM = Missing Value Source: NWS Daily Summary

Daily Weather History Graph

Daily Weather History Graph

Search for Another Location

Airport or City:

Trip Planner

Search our weather history database for the weather conditions in past years. The results will help you decide how hot, cold, wet, or windy it might be!

Date:

Astronomy

Jan. 03, 2012 Rise Set
Actual Time 7:45 AM EST 5:14 PM EST
Civil Twilight 7:15 AM EST 5:44 PM EST
Nautical Twilight 6:42 AM EST 6:18 PM EST
Astronomical Twilight 6:09 AM EST 6:50 PM EST
Moon 1:00 PM EST (1/3) 2:35 AM EST (1/3)
Length of Visible Light 10h 28m
Length of Day
9h 28m
Waxing Gibbous, 72% of the Moon is Illuminated
Jan 3
Waxing Gibbous
Jan 9
Full
Jan 16
Last Quarter
Jan 23
New
Jan 30
First Quarter

Hourly Weather History & Observations

Time (EST) Temp. Windchill Dew Point Humidity Pressure Visibility Wind Dir Wind Speed Gust Speed Precip Events Conditions
12:53 AM 23.0 °F 11.1 °F 17.1 °F 78% 30.16 in 10.0 mi West 12.7 mph - 0.00 in   Overcast
1:50 AM 23.0 °F 12.4 °F 17.6 °F 80% 30.14 in 10.0 mi West 10.4 mph - N/A   Overcast
1:53 AM 23.0 °F 13.9 °F 17.1 °F 78% 30.17 in 10.0 mi West 8.1 mph - N/A   Overcast
2:25 AM 23.0 °F 10.1 °F 15.8 °F 74% 30.14 in 10.0 mi West 15.0 mph 20.7 mph N/A   Overcast
2:53 AM 23.0 °F 11.1 °F 16.0 °F 74% 30.18 in 10.0 mi West 12.7 mph 18.4 mph N/A   Overcast
3:53 AM 23.0 °F 11.7 °F 16.0 °F 74% 30.18 in 10.0 mi West 11.5 mph - N/A   Overcast
4:53 AM 23.0 °F 10.6 °F 15.1 °F 72% 30.21 in 10.0 mi WNW 13.8 mph - N/A   Overcast
5:27 AM 21.2 °F 6.8 °F 12.2 °F 68% 30.20 in 10.0 mi WNW 17.3 mph 28.8 mph N/A   Overcast
5:53 AM 21.0 °F 7.1 °F 12.0 °F 68% 30.24 in 10.0 mi WNW 16.1 mph 28.8 mph 0.00 in   Overcast
6:53 AM 19.9 °F 6.2 °F 10.9 °F 68% 30.27 in 10.0 mi WNW 15.0 mph 29.9 mph 0.00 in   Overcast
7:24 AM 19.4 °F 6.6 °F 10.4 °F 68% 30.23 in 10.0 mi West 12.7 mph 21.9 mph N/A   Mostly Cloudy
7:53 AM 19.9 °F 5.7 °F 10.0 °F 65% 30.27 in 10.0 mi WNW 16.1 mph 21.9 mph N/A   Mostly Cloudy
8:53 AM 19.4 °F 6.0 °F 10.4 °F 68% 30.26 in 10.0 mi West 13.8 mph 23.0 mph N/A   Mostly Cloudy
9:53 AM 19.9 °F 6.7 °F 8.1 °F 60% 30.32 in 10.0 mi West 13.8 mph 20.7 mph N/A   Scattered Clouds
10:53 AM 19.9 °F 6.7 °F 6.1 °F 55% 30.33 in 10.0 mi WNW 13.8 mph 20.7 mph N/A   Scattered Clouds
11:53 AM 21.0 °F 5.7 °F 5.0 °F 50% 30.33 in 10.0 mi West 19.6 mph 28.8 mph N/A   Overcast
12:53 PM 21.0 °F 6.6 °F 7.0 °F 55% 30.32 in 10.0 mi West 17.3 mph 24.2 mph 0.00 in   Overcast
1:53 PM 21.0 °F 8.6 °F 8.1 °F 57% 30.32 in 10.0 mi WNW 12.7 mph 19.6 mph 0.00 in   Overcast
2:53 PM 21.9 °F 11.0 °F 8.1 °F 55% 30.31 in 10.0 mi NW 10.4 mph 26.5 mph N/A   Overcast
3:53 PM 21.9 °F 10.4 °F 10.0 °F 60% 30.32 in 10.0 mi WNW 11.5 mph - N/A   Overcast
4:53 PM 21.0 °F 11.4 °F 12.0 °F 68% 30.34 in 5.0 mi NNW 8.1 mph - 0.00 in Snow Snow
5:53 PM 21.0 °F 9.9 °F 12.9 °F 71% 30.36 in 5.0 mi NW 10.4 mph - 0.00 in Snow Light Snow
6:53 PM 21.0 °F 11.4 °F 12.9 °F 71% 30.38 in 4.0 mi WNW 8.1 mph - 0.00 in   Haze
7:00 PM 21.2 °F 11.7 °F 12.2 °F 68% 30.35 in 10.0 mi West 8.1 mph - N/A   Overcast
7:53 PM 21.0 °F 14.6 °F 14.0 °F 74% 30.40 in 10.0 mi West 4.6 mph - N/A   Overcast
8:53 PM 21.0 °F 14.6 °F 14.0 °F 74% 30.40 in 10.0 mi West 4.6 mph - N/A   Overcast
9:53 PM 21.0 °F - 14.0 °F 74% 30.36 in 10.0 mi Calm Calm - N/A   Overcast
10:53 PM 19.9 °F - 14.0 °F 78% 30.34 in 10.0 mi Calm Calm - N/A   Clear
11:53 PM 19.0 °F - 14.0 °F 81% 30.34 in 10.0 mi Calm Calm - N/A   Clear